Date,TemperatureHighF,TemperatureAvgF,TemperatureLowF,DewpointHighF,DewpointAvgF,DewpointLowF,HumidityHigh,HumidityAvg,HumidityLow,PressureMaxIn,PressureMinIn,WindSpeedMaxMPH,WindSpeedAvgMPH,GustSpeedMaxMPH,PrecipitationSumIn
2014-3-1,53.2,38.3,29.3,27.7,20.7,12.9,69,50,34,30.37,30.21,6,1,8,0.00
2014-3-2,68.8,50.9,30.1,45.5,36.5,24.9,84,60,40,30.25,29.87,11,3,18,0.00
2014-3-3,59.1,40.4,26.1,48.7,35.7,21.8,93,84,61,30.26,29.75,16,3,21,0.11
2014-3-4,35.8,26.8,17.7,21.8,14.9,5.5,90,63,38,30.38,30.22,8,1,12,0.02
2014-3-5,54.9,44.1,25.9,29.1,25.4,17.9,79,50,32,30.25,30.12,5,1,8,0.00
2014-3-6,39.6,34.0,29.9,29.9,20.9,14.9,94,61,40,30.40,30.15,13,6,20,0.00
2014-3-7,45.2,36.9,31.5,37.6,33.7,29.6,97,89,71,30.15,29.96,12,3,17,0.78
2014-3-8,67.6,49.7,31.6,41.3,33.6,27.4,96,61,23,30.08,29.95,11,2,14,0.01
2014-3-9,66.5,55.6,44.1,38.4,32.0,24.7,65,43,22,30.07,29.97,8,3,13,0.00
2014-3-10,72.7,55.0,35.5,36.0,29.2,22.3,69,40,15,30.01,29.78,11,3,18,0.00
2014-3-11,79.1,61.8,44.6,39.5,34.6,29.5,69,40,17,29.81,29.62,10,2,15,0.00
2014-3-12,68.5,54.3,39.1,59.6,42.1,22.9,94,65,37,29.68,29.20,16,3,20,0.13
2014-3-13,44.1,36.3,30.1,23.4,8.9,-0.6,59,34,16,30.23,29.67,13,5,22,0.00
2014-3-14,60.4,43.0,24.7,22.9,15.7,5.1,66,36,19,30.31,30.05,15,4,28,0.00
2014-3-15,70.3,56.9,42.5,37.3,28.2,22.3,52,35,19,30.05,29.94,14,3,20,0.00
2014-3-16,51.4,43.4,34.6,40.0,33.0,26.8,95,70,39,30.02,29.83,12,4,18,0.44
2014-3-17,34.2,31.1,29.1,32.7,29.2,27.1,96,92,89,30.02,29.84,9,3,16,0.15
2014-3-18,44.9,35.9,29.1,38.7,33.1,27.5,96,90,77,30.20,29.98,9,2,12,0.00
2014-3-19,45.8,40.5,36.0,43.1,38.9,35.2,98,94,90,30.21,29.97,8,1,12,0.02
2014-3-20,62.4,50.8,38.1,41.8,29.4,18.6,97,52,19,30.07,29.95,9,3,15,0.00
2014-3-21,67.7,52.1,31.9,30.2,25.1,20.1,75,38,20,30.15,30.00,14,4,20,0.00
2014-3-22,61.3,49.7,44.0,34.8,29.2,26.6,59,46,34,30.02,29.97,5,1,6,0.00
2014-3-23,51.5,46.7,40.5,44.8,30.4,22.8,92,54,42,30.16,29.97,8,4,12,0.21
2014-3-24,51.9,39.9,29.3,23.5,19.3,14.3,63,45,26,30.28,30.06,9,2,12,0.00
2014-3-25,43.1,35.9,30.9,36.6,26.9,17.5,95,71,44,30.06,29.79,15,3,22,0.15
2014-3-26,45.7,35.0,26.7,18.0,11.6,6.7,59,39,23,30.32,30.03,13,4,18,0.00
2014-3-27,58.5,41.3,23.3,24.8,19.1,12.0,80,45,23,30.46,30.24,14,3,23,0.00
2014-3-28,60.2,54.3,47.8,52.6,46.4,24.6,92,75,39,30.25,30.07,9,3,13,0.00
2014-3-29,61.9,55.2,48.3,60.3,53.8,39.2,98,95,73,30.10,29.58,10,2,12,0.51
2014-3-30,54.2,45.4,39.2,40.1,28.5,23.0,74,53,33,30.01,29.67,16,7,23,0.00
2014-3-31,75.7,58.4,42.0,30.4,23.2,10.1,50,27,14,30.13,30.01,11,2,15,0.00